TimeCDT,TemperatureF,Dew PointF,Humidity,Sea Level PressureIn,VisibilityMPH,Wind Direction,Wind SpeedMPH,Gust SpeedMPH,PrecipitationIn,Events,Conditions,WindDirDegrees,DateUTC
12:54 AM,45.0,37.9,76,30.07,10.0,Calm,Calm,-,N/A,,Clear,0,2013-05-07 05:54:00
1:54 AM,43.0,37.0,80,30.07,10.0,Calm,Calm,-,N/A,,Clear,0,2013-05-07 06:54:00
2:54 AM,41.0,36.0,82,30.06,10.0,Calm,Calm,-,N/A,,Clear,0,2013-05-07 07:54:00
3:54 AM,37.9,35.1,89,30.06,10.0,North,3.5,-,N/A,,Clear,350,2013-05-07 08:54:00
4:54 AM,39.0,36.0,89,30.06,10.0,Calm,Calm,-,N/A,,Clear,0,2013-05-07 09:54:00
5:54 AM,37.9,35.1,89,30.07,10.0,Calm,Calm,-,N/A,,Clear,0,2013-05-07 10:54:00
6:54 AM,45.0,39.0,80,30.09,10.0,NNW,3.5,-,N/A,,Clear,330,2013-05-07 11:54:00
7:54 AM,54.0,41.0,62,30.09,10.0,Calm,Calm,-,N/A,,Clear,0,2013-05-07 12:54:00
8:54 AM,63.0,41.0,45,30.09,10.0,Calm,Calm,-,N/A,,Clear,0,2013-05-07 13:54:00
9:54 AM,68.0,37.0,32,30.08,10.0,East,4.6,-,N/A,,Clear,80,2013-05-07 14:54:00
10:54 AM,72.0,30.9,22,30.08,10.0,ESE,4.6,-,N/A,,Clear,110,2013-05-07 15:54:00
11:54 AM,75.0,28.0,18,30.06,10.0,East,6.9,-,N/A,,Clear,80,2013-05-07 16:54:00
12:54 PM,75.9,27.0,16,30.04,10.0,Calm,Calm,-,N/A,,Clear,0,2013-05-07 17:54:00
1:54 PM,77.0,25.0,15,30.03,10.0,ENE,5.8,16.1,N/A,,Clear,70,2013-05-07 18:54:00
2:54 PM,78.1,28.0,16,30.01,10.0,Calm,Calm,-,N/A,,Clear,0,2013-05-07 19:54:00
3:54 PM,79.0,30.9,17,30.00,10.0,SSE,9.2,-,N/A,,Clear,160,2013-05-07 20:54:00
4:54 PM,78.1,32.0,19,30.00,10.0,SSE,11.5,19.6,N/A,,Clear,160,2013-05-07 21:54:00
5:54 PM,75.9,32.0,20,29.99,10.0,SE,10.4,21.9,N/A,,Clear,140,2013-05-07 22:54:00
6:54 PM,73.9,32.0,21,29.99,10.0,SE,11.5,-,N/A,,Clear,140,2013-05-07 23:54:00
7:54 PM,70.0,32.0,25,29.99,10.0,SE,8.1,-,N/A,,Clear,130,2013-05-08 00:54:00
8:54 PM,64.0,32.0,30,30.00,10.0,SE,4.6,-,N/A,,Clear,130,2013-05-08 01:54:00
9:54 PM,61.0,33.1,35,30.01,10.0,Calm,Calm,-,N/A,,Clear,0,2013-05-08 02:54:00
10:54 PM,57.0,37.0,47,30.01,10.0,Calm,Calm,-,N/A,,Clear,0,2013-05-08 03:54:00
11:54 PM,48.9,36.0,61,30.01,10.0,Calm,Calm,-,N/A,,Clear,0,2013-05-08 04:54:00